[[{"header":{"parameterUnit":"m.s-1","parameterCategory":2,"la1":30.2991,"la2":30.254,"lo1":-89.0895,"lo2":-89.0444,"dy":0.0017,"dx":0.0017,"nx":28,"ny":28,"refTime":"2025-07-26T03:00:00:Z","depth":"0","parameterNumber":2,"parameterNumberName":"U-component_of_CURRENTS"},"data":[0,0,0,0,0,0,0,0,0,0,0,0,0,0,0,0,0,0,0,0,0,0,0,0,0,0,0,0,0,0,0,0,0,0,0,0,0,0,0,0,0,0,0,0,0,0,0,0,0,0,0,0,0,0,0,0,0,0,0.4465,0.4466,0,0.4511,0.4511,0.4512,0.4496,0.4496,0.4495,0.4494,0.4456,0.4455,0.4455,0,0,0,0,0,0,0,0,0,0,0,0,0,0.4347,0.4349,0.4465,0.4466,0.4467,0.4511,0.4511,0.4512,0.4496,0.4496,0.4495,0.4494,0.4456,0.4456,0.4455,0,0,0,0,0,0,0,0,0,0,0,0,0,0.4393,0.4349,0.4465,0.4467,0.4468,0.4511,0.4511,0.4512,0.4497,0.4496,0.4495,0.4494,0.4456,0.4456,0.4455,0.4472,0,0,0.4453,0.4453,0,0,0,0,0,0,0,0,0.439,0.4396,0.4466,0.4467,0.4468,0.45,0.4456,0.4495,0.4497,0.4482,0.4494,0.4493,0.4466,0.4465,0.4471,0.447,0.4468,0.4453,0.4453,0.4453,0.4452,0,0,0,0,0,0,0,0.4387,0.4394,0.448,0.4467,0.4469,0.446,0.4465,0.4463,0.4475,0.4483,0.4483,0.4494,0.4465,0.4472,0.447,0.4468,0.4453,0.4453,0.4452,0.4452,0.4593,0.4597,0,0,0,0,0,0,0.4391,0.4392,0.4478,0.4481,0.443,0.4464,0.4469,0.4488,0.4477,0.4476,0.4495,0.4493,0.4474,0.4471,0.4469,0.4521,0.4453,0.4452,0.4452,0.4589,0.4594,0.4599,0,0,0,0,0,0,0.4388,0.4399,0.4476,0.444,0.4449,0.4467,0.4488,0.4489,0.4505,0.4487,0.4484,0.451,0.4473,0.447,0.4511,0.4518,0.4452,0.4451,0.4584,0.4591,0.4596,0.4603,0,0,0,0,0,0,0.4385,0.4397,0.4409,0.444,0.4452,0.4517,0.449,0.4491,0.4514,0.4513,0.4499,0.4494,0.4472,0.4513,0.4511,0.4516,0.4451,0.4579,0.4587,0.4594,0.4598,0.4609,0.4619,0,0,0,0,0,0.4381,0.4396,0.441,0.442,0.4469,0.4519,0.4524,0.4529,0.4516,0.4536,0.4548,0.4495,0.456,0.4516,0.4512,0.4517,0.4575,0.4585,0.4594,0.4593,0.4607,0.4618,0,0,0,0,0,0,0.4338,0.4398,0.4413,0.4443,0.4488,0.4518,0.4525,0.4541,0.4565,0.4552,0.4538,0.4537,0.4589,0.4573,0.4525,0.4595,0.4562,0.4572,0.4564,0.4576,0.4586,0.4587,0.445,0,0,0,0,0,0.4341,0.4375,0.443,0.4455,0.4474,0.4505,0.4523,0.4535,0.4562,0.457,0.4569,0.4584,0.4626,0.4615,0.4651,0.4664,0.4681,0.4678,0.4688,0.4696,0.4705,0.4777,0.4793,0.4629,0.4629,0.4629,0,0,0.4325,0.4368,0.4381,0.445,0.4472,0.4509,0.4512,0.4542,0.4575,0.4561,0.4593,0.4627,0.4653,0.4692,0.4709,0.4667,0.4753,0.4708,0.4713,0.4718,0.4788,0.4803,0.4817,0.4635,0.4634,0.4633,0,0,0.4312,0.4354,0.4375,0.4423,0.4478,0.4508,0.4524,0.4568,0.4588,0.4646,0.4658,0.471,0.474,0.4762,0.4779,0.4874,0.4831,0.4877,0.4881,0.495,0.4963,0.4974,0.4998,0.5011,0.4847,0.4847,0.4847,0,0.4281,0.4333,0.4388,0.4427,0.4457,0.4511,0.4536,0.458,0.4635,0.4654,0.4662,0.4768,0.4782,0.4839,0.4878,0.4888,0.4908,0.4812,0.4957,0.4969,0.498,0.5002,0.5016,0.4848,0.4848,0.4848,0.4848,0,0.4297,0.4337,0.4352,0.4425,0.4468,0.4501,0.4572,0.4612,0.4648,0.4689,0.4775,0.4831,0.4881,0.4904,0.4913,0.4995,0.4978,0.498,0.4905,0.4995,0.5015,0.5029,0.485,0.485,0.4849,0.4849,0,0,0.4208,0.4336,0.4338,0.4369,0.4468,0.4496,0.4563,0.4633,0.466,0.4746,0.4794,0.4902,0.4926,0.4955,0.4976,0.5028,0.5122,0.5026,0.5029,0.5012,0.5245,0.5139,0.5145,0.5138,0.5141,0.5144,0.5217,0,0.4191,0.4266,0.4333,0.4381,0.4418,0.4493,0.4548,0.4619,0.4685,0.4749,0.4839,0.491,0.4946,0.4968,0.5037,0.5117,0.5165,0.51,0.5193,0.5196,0.506,0.5161,0.4991,0.5034,0.5231,0.5233,0.5235,0,0.4171,0.4232,0.4282,0.4366,0.4381,0.4416,0.4492,0.4552,0.4665,0.4718,0.481,0.4886,0.5,0.5021,0.519,0.5143,0.5202,0.5257,0.5261,0.5171,0.5119,0.4986,0.5053,0.4892,0.5257,0.5256,0.5254,0,0.4086,0.4179,0.4217,0.4252,0.4363,0.4378,0.4429,0.4529,0.4573,0.47,0.4747,0.4893,0.4962,0.5098,0.5224,0.5215,0.5393,0.5387,0.5346,0.5337,0.5217,0.5192,0.5108,0.5512,0.5512,0.5512,0.5512,0,0.4048,0.4064,0.4177,0.42,0.4222,0.4313,0.4338,0.4413,0.4515,0.457,0.4718,0.4795,0.4992,0.5114,0.523,0.5328,0.5402,0.5371,0.5366,0.5214,0.5189,0.5062,0.4987,0.5515,0.5514,0.5514,0.5513,0,0.3944,0.4029,0.4062,0.4162,0.4185,0.4195,0.4278,0.4305,0.4415,0.4496,0.4543,0.4733,0.4917,0.5084,0.5287,0.5303,0.5274,0.5435,0.5219,0.5186,0.4971,0.4904,0.4723,0.4598,0.5403,0.5401,0.5399,0,0.3901,0.3917,0.4007,0.4022,0.406,0.4097,0.4125,0.424,0.4282,0.4461,0.4497,0.4693,0.4827,0.506,0.5165,0.5317,0.521,0.5187,0.5151,0.4944,0.4868,0.4717,0.4615,0.4995,0.499,0.4986,0.4983,0,0.3807,0.3836,0.3874,0.3916,0.394,0.3966,0.4022,0.4047,0.4191,0.4268,0.4387,0.4508,0.4741,0.4817,0.4988,0.5078,0.4914,0.5107,0.4971,0.4607,0.4363,0.4243,0.4934,0.4948,0.4952,0.4954,0.4956,0.4958,0.3715,0.3717,0.3774,0.3792,0.3819,0.383,0.3817,0.39,0.3954,0.4058,0.4228,0.4326,0.4479,0.4718,0.4755,0.4651,0.4684,0.4557,0.4515,0.4397,0.4197,0.4781,0.4737,0.4739,0.4741,0.4743,0.4745,0,0.3605,0.3631,0.365,0.367,0.3647,0.3705,0.3737,0.3712,0.3741,0.3877,0.3969,0.4038,0.4118,0.4231,0.4215,0.4067,0.3954,0.3973,0.3736,0.3687,0.4285,0.4186,0.3923,0.3923,0.3923,0.3923,0.3923,0.3923,0.3557,0.3541,0.356,0.3498,0.35,0.3441,0.3437,0.3427,0.3481,0.3476,0.3479,0.3562,0.3716,0.3801,0.3668,0.3598,0.3333,0.3204,0.3197,0.3626,0.3677,0.3726,0.3615,0.3237,0.3236,0.2494,0.2488,0.2484]},{"header":{"parameterUnit":"m.s-1","parameterCategory":2,"la1":30.2991,"la2":30.254,"lo1":-89.0895,"lo2":-89.0444,"dy":0.0017,"dx":0.0017,"nx":28,"ny":28,"refTime":"2025-07-26T03:00:00:Z","depth":"0","parameterNumber":3,"parameterNumberName":"V-component_of_CURRENTS"},"data":[0,0,0,0,0,0,0,0,0,0,0,0,0,0,0,0,0,0,0,0,0,0,0,0,0,0,0,0,0,0,0,0,0,0,0,0,0,0,0,0,0,0,0,0,0,0,0,0,0,0,0,0,0,0,0,0,0,0,0.0558,0.0558,0,0.0472,0.0471,0.047,0.0373,0.0372,0.0371,0.0369,0.0245,0.0243,0.0241,0,0,0,0,0,0,0,0,0,0,0,0,0,0.0606,0.0606,0.0559,0.0557,0.0556,0.0472,0.0471,0.047,0.0374,0.0372,0.037,0.0369,0.0246,0.0243,0.0241,0,0,0,0,0,0,0,0,0,0,0,0,0,0.056,0.0606,0.0559,0.0498,0.0492,0.0473,0.0471,0.047,0.0374,0.0372,0.037,0.0368,0.0247,0.0244,0.0241,0.0265,0,0,0.0232,0.023,0,0,0,0,0,0,0,0,0.0562,0.0558,0.0508,0.0502,0.0495,0.0431,0.0443,0.0399,0.0375,0.0419,0.0369,0.0367,0.0306,0.0298,0.0287,0.0259,0.0254,0.0231,0.023,0.0228,0.0227,0,0,0,0,0,0,0,0.0566,0.0561,0.0524,0.0507,0.0499,0.0464,0.0455,0.0434,0.0374,0.0415,0.0407,0.0399,0.0301,0.029,0.0283,0.0252,0.0231,0.0229,0.0227,0.0226,0.0272,0.0274,0,0,0,0,0,0,0.0581,0.0565,0.0527,0.0522,0.0524,0.0465,0.0455,0.0454,0.0375,0.0361,0.0401,0.0395,0.0296,0.0286,0.0278,0.0328,0.0228,0.0226,0.0224,0.0269,0.0272,0.0275,0,0,0,0,0,0,0.0582,0.0579,0.053,0.054,0.0532,0.0467,0.0466,0.0453,0.0441,0.0365,0.035,0.0401,0.0294,0.0282,0.0283,0.0321,0.0224,0.0222,0.0265,0.027,0.0274,0.0411,0,0,0,0,0,0,0.0584,0.058,0.0587,0.0542,0.0532,0.054,0.0468,0.0453,0.0439,0.043,0.0361,0.0346,0.0291,0.0288,0.028,0.0315,0.0219,0.0261,0.0267,0.0272,0.0403,0.042,0.0434,0,0,0,0,0,0.0587,0.0615,0.0589,0.0584,0.0543,0.0542,0.0535,0.048,0.0441,0.0457,0.0414,0.0349,0.0318,0.0289,0.0279,0.0313,0.0259,0.0265,0.0272,0.0396,0.0416,0.0434,0,0,0,0,0,0,0.0648,0.0606,0.0576,0.0592,0.0575,0.0526,0.053,0.0496,0.0474,0.0463,0.0385,0.0371,0.0386,0.0343,0.0313,0.0347,0.0279,0.0284,0.0377,0.0395,0.0411,0.0425,0.0217,0,0,0,0,0,0.0665,0.0668,0.063,0.0644,0.0637,0.0587,0.0578,0.0548,0.0519,0.0505,0.0456,0.0418,0.041,0.0396,0.0375,0.0395,0.0357,0.0414,0.043,0.0443,0.0452,0.0448,0.0464,0.0298,0.0297,0.0297,0,0,0.0693,0.067,0.0672,0.0656,0.0631,0.0645,0.0576,0.058,0.0598,0.0499,0.0507,0.0472,0.043,0.0452,0.0454,0.0416,0.0474,0.0452,0.0463,0.0464,0.0457,0.0473,0.0487,0.0302,0.0301,0.0301,0,0,0.0754,0.0732,0.0751,0.0745,0.0723,0.07,0.0708,0.0672,0.066,0.0679,0.0614,0.0609,0.0583,0.056,0.0548,0.0644,0.056,0.0636,0.0719,0.0717,0.073,0.0741,0.0719,0.0727,0.064,0.064,0.064,0,0.0783,0.0802,0.0763,0.0783,0.0783,0.0732,0.0764,0.0762,0.0733,0.0736,0.0703,0.0684,0.0641,0.067,0.0699,0.0678,0.0654,0.0646,0.0736,0.0746,0.0754,0.0729,0.0736,0.0647,0.0646,0.0646,0.0645,0,0.0857,0.087,0.0888,0.0889,0.0894,0.0918,0.0903,0.0915,0.0894,0.0879,0.0904,0.0859,0.0841,0.0836,0.0795,0.0841,0.0797,0.0758,0.0683,0.0779,0.0747,0.0752,0.0658,0.0655,0.0653,0.0651,0,0,0.0915,0.0933,0.0938,0.0948,0.095,0.096,0.1009,0.1029,0.1056,0.1045,0.1082,0.1072,0.1029,0.1014,0.0961,0.0958,0.0997,0.0891,0.0887,0.0861,0.0981,0.0881,0.0875,0.097,0.0971,0.0973,0.0934,0,0.0977,0.103,0.1029,0.1086,0.1106,0.1091,0.1136,0.1151,0.1156,0.1184,0.1161,0.1174,0.1105,0.1098,0.1092,0.1023,0.1015,0.101,0.0898,0.0894,0.0787,0.088,0.0842,0.0798,0.0938,0.0938,0.0939,0,0.1038,0.1063,0.1125,0.1161,0.1171,0.1205,0.1248,0.1286,0.1319,0.1325,0.1338,0.1308,0.1315,0.124,0.1184,0.1182,0.1099,0.1038,0.1034,0.0894,0.0803,0.0725,0.08,0.0575,0.0945,0.0944,0.0944,0,0.1068,0.1126,0.1174,0.1187,0.1229,0.1262,0.1288,0.1323,0.1364,0.1412,0.1445,0.1437,0.1433,0.1362,0.1239,0.1216,0.1163,0.111,0.0941,0.0932,0.0853,0.0834,0.069,0.1072,0.1072,0.1072,0.1072,0,0.1116,0.1153,0.1191,0.1216,0.1282,0.1296,0.1369,0.1397,0.1456,0.1525,0.1512,0.1564,0.1463,0.1417,0.1297,0.1139,0.1207,0.0973,0.0926,0.09,0.0886,0.0645,0.0545,0.107,0.1071,0.1071,0.1071,0,0.1129,0.1158,0.1211,0.1268,0.1292,0.1333,0.1413,0.1471,0.1519,0.1614,0.1639,0.1661,0.1617,0.1492,0.1368,0.1197,0.0934,0.0982,0.0946,0.0895,0.0503,0.0414,0.0249,0.0163,0.0797,0.0794,0.0792,0,0.1135,0.1163,0.1235,0.1275,0.1303,0.137,0.1427,0.1493,0.1565,0.1681,0.174,0.1735,0.1772,0.1546,0.1269,0.1043,0.0867,0.0787,0.0729,0.0487,0.0354,0.0306,0.0245,0.0686,0.0683,0.0681,0.0679,0,0.1143,0.1166,0.1209,0.1291,0.1356,0.1441,0.1532,0.1601,0.1702,0.18,0.1918,0.1967,0.1768,0.1541,0.1191,0.1002,0.062,0.0726,0.0505,0.0281,0.0196,0.0089,0.0688,0.0658,0.066,0.0662,0.0663,0.0664,0.1134,0.1165,0.1224,0.1304,0.139,0.1508,0.1591,0.1715,0.1854,0.2052,0.2063,0.219,0.1779,0.1326,0.1031,0.0388,0.0462,0.0188,0.0109,0.0091,-0.0025,0.0508,0.0399,0.0399,0.04,0.04,0.04,0,0.1114,0.1163,0.1238,0.1342,0.1444,0.1497,0.166,0.1775,0.1961,0.2183,0.2317,0.2168,0.1666,0.1139,0.0292,-0.0139,-0.0255,-0.0381,-0.0448,-0.0472,0.002,-0.0023,-0.0263,-0.0263,-0.0263,-0.0263,-0.0262,-0.0262,0.1104,0.1159,0.1209,0.1362,0.1452,0.1603,0.1706,0.1904,0.2094,0.2366,0.2468,0.2509,0.1991,0.0518,-0.0462,-0.0669,-0.0932,-0.1012,-0.1116,-0.0801,-0.0753,-0.0708,-0.0774,-0.1167,-0.1169,-0.1559,-0.1564,-0.1567]}],[{"header":{"parameterUnit":"m.s-1","parameterCategory":2,"la1":30.2991,"la2":30.254,"lo1":-89.0895,"lo2":-89.0444,"dy":0.0017,"dx":0.0017,"nx":28,"ny":28,"refTime":"2025-07-26T03:00:00:Z","depth":"2","parameterNumber":2,"parameterNumberName":"U-component_of_CURRENTS"},"data":[0,0,0,0,0,0,0,0,0,0,0,0,0,0,0,0,0,0,0,0,0,0,0,0,0,0,0,0,0,0,0,0,0,0,0,0,0,0,0,0,0,0,0,0,0,0,0,0,0,0,0,0,0,0,0,0,0,0,0.2418,0.2419,0,0.2496,0.2496,0.2497,0.2512,0.2511,0.2511,0.2511,0.2663,0.2667,0.2671,0,0,0,0,0,0,0,0,0,0,0,0,0,0.2302,0.2304,0.2418,0.242,0.2421,0.2496,0.2496,0.2497,0.2512,0.2511,0.2511,0.2511,0.2661,0.2666,0.2672,0,0,0,0,0,0,0,0,0,0,0,0,0,0.236,0.2305,0.2418,0.244,0.2443,0.2496,0.2496,0.2497,0.2512,0.2511,0.2511,0.2511,0.266,0.2666,0.2672,0.2719,0,0,0.2692,0.2695,0,0,0,0,0,0,0,0,0.2356,0.2363,0.2436,0.2439,0.2442,0.2497,0.2512,0.2577,0.2512,0.2481,0.2511,0.251,0.2617,0.2627,0.2636,0.2726,0.2733,0.2692,0.2696,0.2699,0.2701,0,0,0,0,0,0,0,0.2352,0.236,0.2445,0.2437,0.2441,0.2453,0.246,0.2523,0.2549,0.2484,0.2486,0.2502,0.2619,0.2629,0.264,0.2735,0.2692,0.2698,0.2702,0.2704,0.3031,0.3035,0,0,0,0,0,0,0.2351,0.2357,0.2442,0.2448,0.2402,0.2456,0.2464,0.2477,0.2547,0.2557,0.2502,0.2502,0.2619,0.2632,0.2645,0.2738,0.2699,0.2705,0.2709,0.3026,0.3032,0.3037,0,0,0,0,0,0,0.2348,0.2357,0.2439,0.2407,0.2419,0.2459,0.2473,0.2478,0.2522,0.256,0.2571,0.2544,0.2619,0.2636,0.2739,0.2743,0.2708,0.2714,0.302,0.3028,0.3034,0.2904,0,0,0,0,0,0,0.2344,0.2356,0.237,0.2407,0.2421,0.2477,0.2474,0.248,0.2532,0.2534,0.26,0.2611,0.262,0.273,0.2746,0.2751,0.2719,0.3014,0.3024,0.3032,0.2902,0.2906,0.2909,0,0,0,0,0,0.234,0.2356,0.237,0.2381,0.2437,0.2478,0.2486,0.251,0.2535,0.2549,0.2616,0.261,0.28,0.2738,0.2756,0.2763,0.301,0.3021,0.3031,0.29,0.2905,0.2909,0,0,0,0,0,0,0.2317,0.2361,0.2376,0.2407,0.2444,0.2482,0.2502,0.2537,0.26,0.2614,0.2657,0.2674,0.2745,0.2823,0.2754,0.2904,0.2912,0.2926,0.2806,0.2811,0.2815,0.281,0.2724,0,0,0,0,0,0.232,0.2339,0.2387,0.2412,0.2433,0.248,0.2507,0.2529,0.2587,0.2614,0.2663,0.2748,0.2803,0.2861,0.2909,0.301,0.3047,0.3046,0.3049,0.305,0.3072,0.3135,0.3142,0.3073,0.3073,0.3072,0,0,0.2318,0.2346,0.2359,0.2409,0.2439,0.2473,0.2494,0.254,0.2576,0.2626,0.2697,0.2736,0.283,0.2897,0.2945,0.2966,0.3089,0.3064,0.3062,0.3085,0.3147,0.3152,0.3157,0.308,0.3079,0.3078,0,0,0.2319,0.2353,0.2367,0.2401,0.2455,0.2485,0.2512,0.2569,0.2598,0.268,0.2709,0.2771,0.2893,0.2929,0.2973,0.3059,0.3075,0.3102,0.3133,0.3191,0.3194,0.3198,0.3211,0.3216,0.3135,0.3135,0.3135,0,0.2317,0.2345,0.238,0.2406,0.244,0.2499,0.2532,0.2572,0.2657,0.2697,0.27,0.2856,0.2898,0.299,0.3007,0.3049,0.309,0.3074,0.3182,0.3187,0.3193,0.3206,0.3214,0.313,0.3131,0.3131,0.3132,0,0.2327,0.2358,0.2373,0.2423,0.2463,0.2502,0.2562,0.2614,0.2666,0.2709,0.2798,0.2853,0.2963,0.2974,0.301,0.3094,0.3106,0.3129,0.3132,0.3189,0.3203,0.3212,0.3123,0.3125,0.3126,0.3128,0,0,0.2299,0.2365,0.2371,0.2394,0.2478,0.2506,0.2579,0.2656,0.2717,0.2778,0.2857,0.2923,0.2965,0.3027,0.307,0.3125,0.315,0.3161,0.3166,0.3104,0.3262,0.3182,0.3185,0.3189,0.3191,0.3193,0.3234,0,0.2298,0.2334,0.238,0.243,0.2458,0.2536,0.2594,0.2673,0.2751,0.2838,0.2902,0.2985,0.2987,0.304,0.3089,0.3157,0.3184,0.3136,0.3281,0.3285,0.3149,0.3198,0.2967,0.2979,0.3244,0.3246,0.3247,0,0.229,0.2318,0.2357,0.2431,0.2452,0.2495,0.261,0.2673,0.2806,0.2876,0.2979,0.3041,0.3147,0.3127,0.3249,0.323,0.3243,0.3264,0.3267,0.3254,0.3227,0.2987,0.2988,0.3265,0.3263,0.3262,0.3261,0,0.2236,0.2303,0.2331,0.2356,0.2449,0.249,0.2553,0.2681,0.2758,0.2917,0.2996,0.3122,0.3207,0.3264,0.3328,0.3308,0.3434,0.341,0.333,0.3323,0.3191,0.3168,0.3458,0.3458,0.3458,0.3458,0.3457,0,0.221,0.2231,0.2304,0.2317,0.2363,0.2448,0.2532,0.2625,0.2779,0.2877,0.3013,0.3118,0.3253,0.3343,0.3363,0.3394,0.3469,0.3342,0.3342,0.314,0.3113,0.3432,0.3428,0.3459,0.3459,0.3458,0.3458,0,0.2136,0.2189,0.2218,0.2304,0.2335,0.2364,0.2509,0.2575,0.2736,0.2877,0.2937,0.3153,0.3267,0.3347,0.3455,0.3439,0.347,0.3442,0.3175,0.3142,0.3298,0.3289,0.3359,0.3357,0.3355,0.3353,0.3352,0,0.2093,0.2101,0.2181,0.2201,0.2238,0.231,0.2366,0.2537,0.2622,0.2887,0.294,0.312,0.3208,0.3337,0.3352,0.3357,0.3414,0.314,0.3049,0.3302,0.3295,0.3289,0.3282,0.2805,0.28,0.2795,0.2792,0,0.2003,0.2037,0.2059,0.2109,0.2157,0.2219,0.2314,0.2382,0.259,0.2706,0.2877,0.2974,0.3116,0.307,0.3106,0.3072,0.3128,0.3043,0.3414,0.2868,0.2785,0.2777,0.2788,0.275,0.2754,0.2757,0.276,0.2761,0.1924,0.192,0.1961,0.2002,0.2057,0.211,0.213,0.2243,0.2349,0.2482,0.2667,0.2739,0.2829,0.2771,0.2715,0.27,0.288,0.277,0.2783,0.2801,0.2732,0.265,0.2575,0.2577,0.258,0.2582,0.2584,0,0.1813,0.1836,0.1858,0.1897,0.1907,0.1997,0.2077,0.2037,0.2088,0.2274,0.2354,0.2229,0.2242,0.2343,0.2271,0.2285,0.2243,0.2189,0.2125,0.2169,0.2207,0.2106,0.1784,0.1781,0.1778,0.1776,0,0,0.1755,0.1734,0.1755,0.1737,0.1778,0.1768,0.1794,0.173,0.1804,0.181,0.1904,0.2076,0.2277,0.1986,0.196,0.1877,0.1995,0.1799,0.2447,0.2415,0.2449,0.2556,0.2452,0,0,0,0,0]},{"header":{"parameterUnit":"m.s-1","parameterCategory":2,"la1":30.2991,"la2":30.254,"lo1":-89.0895,"lo2":-89.0444,"dy":0.0017,"dx":0.0017,"nx":28,"ny":28,"refTime":"2025-07-26T03:00:00:Z","depth":"2","parameterNumber":3,"parameterNumberName":"V-component_of_CURRENTS"},"data":[0,0,0,0,0,0,0,0,0,0,0,0,0,0,0,0,0,0,0,0,0,0,0,0,0,0,0,0,0,0,0,0,0,0,0,0,0,0,0,0,0,0,0,0,0,0,0,0,0,0,0,0,0,0,0,0,0,0,-0.046,-0.0461,0,-0.0513,-0.0513,-0.0513,-0.0525,-0.0525,-0.0525,-0.0525,-0.0516,-0.0515,-0.0515,0,0,0,0,0,0,0,0,0,0,0,0,0,-0.0346,-0.0348,-0.046,-0.0461,-0.0462,-0.0513,-0.0513,-0.0513,-0.0525,-0.0525,-0.0525,-0.0525,-0.0516,-0.0515,-0.0515,0,0,0,0,0,0,0,0,0,0,0,0,0,-0.0392,-0.0348,-0.046,-0.0478,-0.048,-0.0513,-0.0513,-0.0514,-0.0525,-0.0525,-0.0525,-0.0525,-0.0516,-0.0515,-0.0515,-0.0509,0,0,-0.0513,-0.0513,0,0,0,0,0,0,0,0,-0.0389,-0.0396,-0.0474,-0.0477,-0.048,-0.0517,-0.047,-0.0511,-0.0525,-0.0502,-0.0525,-0.0526,-0.0514,-0.0513,-0.0516,-0.0508,-0.0508,-0.0513,-0.0513,-0.0513,-0.0512,0,0,0,0,0,0,0,-0.0386,-0.0393,-0.0476,-0.0475,-0.0479,-0.0476,-0.0483,-0.0477,-0.0501,-0.0504,-0.0507,-0.0521,-0.0514,-0.0517,-0.0516,-0.0508,-0.0513,-0.0513,-0.0512,-0.0512,-0.0557,-0.0558,0,0,0,0,0,0,-0.0392,-0.0391,-0.0474,-0.0478,-0.044,-0.0479,-0.0485,-0.0501,-0.0503,-0.0505,-0.0521,-0.0521,-0.0518,-0.0517,-0.0516,-0.0504,-0.0513,-0.0512,-0.0512,-0.0555,-0.0557,-0.0558,0,0,0,0,0,0,-0.0389,-0.0399,-0.0472,-0.0439,-0.0449,-0.0481,-0.0498,-0.0502,-0.0499,-0.0517,-0.0517,-0.0514,-0.0518,-0.0517,-0.0533,-0.0504,-0.0512,-0.0511,-0.0553,-0.0556,-0.0558,-0.0483,0,0,0,0,0,0,-0.0385,-0.0397,-0.0394,-0.044,-0.0451,-0.0476,-0.0498,-0.0503,-0.0511,-0.0511,-0.0511,-0.0511,-0.0518,-0.0534,-0.0532,-0.0503,-0.0511,-0.0551,-0.0554,-0.0557,-0.0484,-0.0483,-0.0482,0,0,0,0,0,-0.0381,-0.0368,-0.0394,-0.0404,-0.0452,-0.0476,-0.0479,-0.05,-0.051,-0.0498,-0.0528,-0.0511,-0.0551,-0.0535,-0.0532,-0.0502,-0.055,-0.0554,-0.0557,-0.0484,-0.0483,-0.0482,0,0,0,0,0,0,-0.0304,-0.037,-0.0399,-0.0404,-0.0437,-0.0479,-0.0466,-0.0493,-0.0505,-0.0501,-0.0524,-0.0526,-0.0538,-0.0544,-0.0526,-0.0534,-0.0549,-0.0552,-0.0495,-0.0494,-0.0493,-0.0441,-0.0511,0,0,0,0,0,-0.0294,-0.0305,-0.0369,-0.0369,-0.0383,-0.0426,-0.0435,-0.0454,-0.0482,-0.0486,-0.05,-0.0522,-0.0551,-0.0541,-0.0568,-0.0552,-0.0565,-0.0541,-0.0539,-0.0538,-0.0502,-0.0546,-0.0543,-0.057,-0.0569,-0.0569,0,0,-0.0265,-0.0301,-0.0308,-0.0354,-0.0376,-0.038,-0.0428,-0.0433,-0.043,-0.0482,-0.0471,-0.0521,-0.0557,-0.0561,-0.0563,-0.0552,-0.054,-0.0542,-0.054,-0.0504,-0.0549,-0.0546,-0.0543,-0.0572,-0.0571,-0.0571,0,0,-0.021,-0.0245,-0.0238,-0.0261,-0.0299,-0.0329,-0.0331,-0.0374,-0.0383,-0.0399,-0.0452,-0.0487,-0.0506,-0.0531,-0.0546,-0.0554,-0.0552,-0.0567,-0.0483,-0.0528,-0.0524,-0.0521,-0.053,-0.0528,-0.0542,-0.0542,-0.0542,0,-0.0172,-0.018,-0.0234,-0.0229,-0.0235,-0.0303,-0.0286,-0.0307,-0.0351,-0.0353,-0.0382,-0.0452,-0.0487,-0.0497,-0.0508,-0.0541,-0.0559,-0.0475,-0.052,-0.0518,-0.0516,-0.0526,-0.0525,-0.0539,-0.0539,-0.0539,-0.054,0,-0.0122,-0.0121,-0.011,-0.0136,-0.0145,-0.0139,-0.0187,-0.0192,-0.0223,-0.0254,-0.0283,-0.0355,-0.0385,-0.0418,-0.0456,-0.0463,-0.0478,-0.0529,-0.0507,-0.0508,-0.052,-0.052,-0.0534,-0.0535,-0.0536,-0.0537,0,0,-0.0061,-0.0075,-0.0071,-0.0059,-0.0094,-0.0092,-0.0085,-0.0101,-0.0079,-0.0141,-0.012,-0.0208,-0.025,-0.0274,-0.034,-0.0371,-0.039,-0.0425,-0.0429,-0.0402,-0.0457,-0.0456,-0.0457,-0.0448,-0.0448,-0.0448,-0.0467,0,-0.0007,0.0029,0.0004,0.005,0.0065,0.0023,0.0041,0.0022,-0.0001,0.0003,-0.0081,-0.0099,-0.0194,-0.0205,-0.0256,-0.0356,-0.0388,-0.0377,-0.0486,-0.0488,-0.0462,-0.0456,-0.0444,-0.0459,-0.0467,-0.0467,-0.0467,0,0.0043,0.0061,0.0112,0.0144,0.015,0.0168,0.0195,0.0203,0.0182,0.017,0.0135,0.0064,0.0015,-0.0081,-0.0212,-0.0199,-0.0311,-0.0398,-0.0402,-0.0416,-0.0487,-0.0466,-0.046,-0.0468,-0.0468,-0.0468,-0.0468,0,0.0106,0.0141,0.0189,0.0196,0.0214,0.0243,0.0255,0.0254,0.0292,0.0279,0.0305,0.0215,0.0195,0.0039,-0.0137,-0.0173,-0.0282,-0.0361,-0.0465,-0.0465,-0.048,-0.0481,-0.0462,-0.0462,-0.0462,-0.0462,-0.0462,0,0.0164,0.0208,0.0225,0.0252,0.0328,0.0317,0.0402,0.0401,0.0436,0.0507,0.0397,0.0439,0.0221,0.0125,-0.0068,-0.0237,-0.0231,-0.0425,-0.0467,-0.0456,-0.0455,-0.049,-0.0492,-0.0463,-0.0463,-0.0463,-0.0462,0,0.0222,0.023,0.0295,0.0335,0.0357,0.0412,0.05,0.0567,0.0579,0.0672,0.0677,0.0624,0.0493,0.0262,0.0037,-0.0118,-0.0309,-0.0386,-0.0334,-0.037,-0.0478,-0.0478,-0.0484,-0.0484,-0.0484,-0.0484,-0.0484,0,0.0254,0.0291,0.0361,0.0412,0.0435,0.0518,0.0587,0.0632,0.0719,0.0797,0.0858,0.0768,0.0713,0.0403,0.0085,-0.023,-0.0298,-0.0382,-0.0463,-0.0438,-0.048,-0.0479,-0.0478,-0.0457,-0.0456,-0.0456,-0.0456,0,0.0318,0.0342,0.0394,0.0498,0.0578,0.0687,0.0791,0.089,0.0967,0.1046,0.1147,0.1107,0.0789,0.049,0.0067,-0.0149,-0.0331,-0.0387,-0.0376,-0.0451,-0.0414,-0.0454,-0.0454,-0.0455,-0.0455,-0.0455,-0.0455,-0.0455,0.0368,0.042,0.0492,0.0595,0.07,0.0853,0.0977,0.1108,0.1269,0.1378,0.1325,0.126,0.0898,0.034,0.0009,-0.0323,-0.0348,-0.0462,-0.0462,-0.0463,-0.0454,-0.042,-0.0457,-0.0457,-0.0457,-0.0458,-0.0458,0,0.0425,0.0488,0.0589,0.0727,0.0869,0.0904,0.1116,0.1232,0.145,0.1497,0.1517,0.1161,0.0798,0.0403,-0.0095,-0.0395,-0.0436,-0.0471,-0.0467,-0.0467,-0.0467,-0.0459,-0.0464,-0.0464,-0.0464,-0.0465,0,0,0.0459,0.0558,0.0614,0.0846,0.096,0.1176,0.1315,0.1469,0.1563,0.1609,0.1565,0.1341,0.0895,0.0533,0.0095,-0.0161,-0.0229,-0.0211,-0.0181,-0.0125,-0.012,-0.0448,-0.0433,0,0,0,0,0]}],[{"header":{"parameterUnit":"m.s-1","parameterCategory":2,"la1":30.2991,"la2":30.254,"lo1":-89.0895,"lo2":-89.0444,"dy":0.0017,"dx":0.0017,"nx":28,"ny":28,"refTime":"2025-07-26T03:00:00:Z","depth":"4","parameterNumber":2,"parameterNumberName":"U-component_of_CURRENTS"},"data":[0,0,0,0,0,0,0,0,0,0,0,0,0,0,0,0,0,0,0,0,0,0,0,0,0,0,0,0,0,0,0,0,0,0,0,0,0,0,0,0,0,0,0,0,0,0,0,0,0,0,0,0,0,0,0,0,0,0,0.0921,0.0922,0,0.0978,0.0978,0.0979,0.1011,0.1012,0.1012,0.1012,0.1149,0.1152,0.1155,0,0,0,0,0,0,0,0,0,0,0,0,0,0.0856,0.0856,0.0921,0.0922,0.0923,0.0978,0.0978,0.0979,0.1011,0.1012,0.1012,0.1012,0.1148,0.1152,0.1156,0,0,0,0,0,0,0,0,0,0,0,0,0,0.0894,0.0857,0.0921,0.0947,0.095,0.0978,0.0978,0.0979,0.1011,0.1012,0.1012,0.1012,0.1146,0.1151,0.1156,0.1179,0,0,0.1172,0.1174,0,0,0,0,0,0,0,0,0.0891,0.0896,0.0942,0.0945,0.0949,0.099,0.1006,0.105,0.1011,0.0986,0.1012,0.1013,0.1104,0.1112,0.1118,0.1185,0.1191,0.1172,0.1175,0.1177,0.1179,0,0,0,0,0,0,0,0.0889,0.0894,0.0942,0.0943,0.0947,0.0961,0.0967,0.1014,0.1042,0.0988,0.0991,0.1,0.1106,0.1113,0.1122,0.1193,0.1172,0.1176,0.118,0.1181,0.1273,0.1273,0,0,0,0,0,0,0.0884,0.0891,0.094,0.0943,0.0923,0.0962,0.0968,0.0974,0.104,0.105,0.1,0.1002,0.1104,0.1116,0.1127,0.12,0.1177,0.1182,0.1185,0.1274,0.1273,0.1273,0,0,0,0,0,0,0.0883,0.0888,0.0938,0.092,0.0928,0.0963,0.097,0.0975,0.1008,0.1048,0.1059,0.1029,0.1105,0.112,0.1175,0.1204,0.1184,0.1189,0.1275,0.1274,0.1273,0.1319,0,0,0,0,0,0,0.088,0.0887,0.0898,0.092,0.0929,0.097,0.097,0.0976,0.1012,0.1016,0.1077,0.1088,0.1107,0.1167,0.118,0.1211,0.1193,0.1275,0.1274,0.1273,0.1318,0.132,0.1321,0,0,0,0,0,0.0878,0.088,0.0898,0.0904,0.094,0.0971,0.0977,0.1002,0.1013,0.1032,0.1063,0.1088,0.1168,0.1172,0.1187,0.1219,0.1276,0.1275,0.1273,0.1318,0.132,0.1321,0,0,0,0,0,0,0.0852,0.0885,0.0904,0.0916,0.0953,0.0978,0.0995,0.1017,0.1055,0.1068,0.1098,0.1112,0.1156,0.1176,0.1179,0.1233,0.122,0.1221,0.1248,0.125,0.1252,0.1256,0.1197,0,0,0,0,0,0.0854,0.087,0.0906,0.0921,0.0939,0.0975,0.0995,0.1021,0.1053,0.1071,0.1106,0.1136,0.1157,0.1197,0.121,0.1271,0.1283,0.129,0.1291,0.1293,0.1301,0.132,0.1325,0.1268,0.1268,0.1268,0,0,0.0852,0.087,0.0882,0.0919,0.0947,0.0975,0.0988,0.103,0.1059,0.1082,0.113,0.1144,0.1165,0.1206,0.123,0.124,0.1318,0.1291,0.1293,0.13,0.1319,0.1325,0.1331,0.1267,0.1267,0.1268,0,0,0.0847,0.0871,0.0885,0.0918,0.097,0.0992,0.1011,0.1055,0.1082,0.1132,0.1135,0.1172,0.1221,0.124,0.1255,0.1278,0.1307,0.1278,0.1326,0.1344,0.135,0.1355,0.1399,0.1408,0.1302,0.1303,0.1303,0,0.0846,0.0868,0.0896,0.0922,0.0954,0.1001,0.1034,0.1063,0.112,0.115,0.1152,0.1206,0.1233,0.1282,0.1283,0.1288,0.1306,0.1327,0.135,0.1355,0.136,0.1403,0.1412,0.1305,0.1304,0.1304,0.1304,0,0.0852,0.0884,0.0896,0.0943,0.0978,0.1018,0.1066,0.1106,0.1143,0.1176,0.1229,0.1255,0.1299,0.1301,0.131,0.1355,0.136,0.1335,0.1355,0.1369,0.1413,0.1422,0.1308,0.1307,0.1306,0.1306,0,0,0.0818,0.0888,0.0896,0.0932,0.1001,0.103,0.1081,0.1143,0.1187,0.1234,0.1288,0.1321,0.1352,0.1367,0.1383,0.1407,0.1464,0.1398,0.1398,0.146,0.1529,0.1463,0.1466,0.1446,0.1447,0.1448,0.1556,0,0.0823,0.0869,0.0907,0.0967,0.1,0.1064,0.1108,0.1173,0.1225,0.1285,0.1327,0.1376,0.1373,0.1409,0.1434,0.1449,0.1485,0.1439,0.149,0.1492,0.1446,0.1472,0.1452,0.1562,0.1564,0.1565,0.1566,0,0.0815,0.0851,0.0905,0.0993,0.1015,0.106,0.1151,0.1203,0.1292,0.134,0.1406,0.1434,0.1505,0.1476,0.1547,0.152,0.1534,0.1536,0.1539,0.1466,0.144,0.1537,0.1582,0.1581,0.158,0.1579,0.1578,0,0.0768,0.0851,0.0895,0.0926,0.1023,0.1071,0.1132,0.1225,0.1281,0.1386,0.144,0.151,0.1571,0.1584,0.162,0.1589,0.1675,0.1634,0.159,0.1588,0.1598,0.1591,0.1667,0.1667,0.1667,0.1667,0.1666,0,0.0749,0.0788,0.0885,0.091,0.0977,0.1062,0.1145,0.1215,0.1326,0.1399,0.1478,0.1538,0.1596,0.1652,0.1653,0.1668,0.1717,0.1609,0.1607,0.1616,0.1609,0.1606,0.1598,0.1671,0.167,0.1669,0.1668,0,0.0691,0.0753,0.0808,0.0917,0.0956,0.1007,0.1147,0.1203,0.1326,0.1425,0.1465,0.1588,0.1668,0.1717,0.1763,0.1722,0.1726,0.1715,0.1763,0.176,0.1621,0.1613,0.1674,0.1673,0.1671,0.167,0.1669,0,0.0664,0.0687,0.0793,0.0826,0.0882,0.0977,0.1039,0.1182,0.125,0.1439,0.1477,0.1607,0.1674,0.171,0.1753,0.1776,0.1742,0.1748,0.1637,0.1628,0.162,0.1614,0.1609,0.1667,0.1667,0.1667,0.1666,0,0.0611,0.0654,0.0697,0.0765,0.0833,0.0905,0.1016,0.1059,0.1232,0.1352,0.1465,0.1525,0.1625,0.1668,0.1715,0.1711,0.1738,0.1733,0.1734,0.163,0.162,0.1612,0.1608,0.1662,0.1662,0.1663,0.1663,0,0.0568,0.0581,0.0641,0.0696,0.0768,0.082,0.089,0.0998,0.1091,0.1311,0.1344,0.1491,0.1613,0.1637,0.1668,0.168,0.1637,0.1566,0.1575,0.158,0.1496,0.1466,0.1471,0,0,0,0,0,0.0524,0.0534,0.0573,0.0629,0.0695,0.0745,0.0868,0.0946,0.1114,0.1165,0.1261,0.135,0.144,0.1508,0.1498,0.1603,0.1622,0.1583,0.1538,0.1636,0.1642,0.1549,0,0,0,0,0,0,0.0494,0.0522,0.0543,0.0563,0.059,0.0664,0.0737,0.0849,0.0896,0.107,0.1123,0.1265,0.1358,0.1427,0.1468,0.1489,0.1435,0.1678,0.1675,0.1634,0.1638,0.1643,0.1549,0,0,0,0,0]},{"header":{"parameterUnit":"m.s-1","parameterCategory":2,"la1":30.2991,"la2":30.254,"lo1":-89.0895,"lo2":-89.0444,"dy":0.0017,"dx":0.0017,"nx":28,"ny":28,"refTime":"2025-07-26T03:00:00:Z","depth":"4","parameterNumber":3,"parameterNumberName":"V-component_of_CURRENTS"},"data":[0,0,0,0,0,0,0,0,0,0,0,0,0,0,0,0,0,0,0,0,0,0,0,0,0,0,0,0,0,0,0,0,0,0,0,0,0,0,0,0,0,0,0,0,0,0,0,0,0,0,0,0,0,0,0,0,0,0,0.0032,0.0031,0,-0.0017,-0.0018,-0.0018,-0.0036,-0.0036,-0.0036,-0.0035,-0.0161,-0.0165,-0.0168,0,0,0,0,0,0,0,0,0,0,0,0,0,0.006,0.006,0.0032,0.0031,0.0031,-0.0017,-0.0018,-0.0019,-0.0036,-0.0036,-0.0036,-0.0035,-0.016,-0.0164,-0.0169,0,0,0,0,0,0,0,0,0,0,0,0,0,0.0032,0.006,0.0032,0.0017,0.0016,-0.0017,-0.0018,-0.0019,-0.0036,-0.0036,-0.0035,-0.0035,-0.0159,-0.0164,-0.0169,-0.0213,0,0,-0.0186,-0.0188,0,0,0,0,0,0,0,0,0.0033,0.003,0.002,0.0018,0.0016,-0.0019,-0.0054,-0.0087,-0.0037,-0.0019,-0.0035,-0.0035,-0.012,-0.0128,-0.014,-0.0218,-0.0224,-0.0186,-0.019,-0.0192,-0.0194,0,0,0,0,0,0,0,0.0035,0.0032,0.0011,0.0019,0.0017,-0.0003,-0.0006,-0.006,-0.0074,-0.002,-0.0021,-0.0024,-0.0122,-0.0135,-0.0143,-0.0226,-0.0186,-0.0191,-0.0194,-0.0197,-0.0309,-0.0309,0,0,0,0,0,0,0.0047,0.0034,0.0012,0.0009,0.0028,-0.0004,-0.0008,-0.0009,-0.0072,-0.008,-0.0024,-0.0024,-0.0126,-0.0137,-0.0148,-0.018,-0.0192,-0.0197,-0.02,-0.0309,-0.0309,-0.0309,0,0,0,0,0,0,0.0048,0.0045,0.0014,0.0022,0.0017,-0.0004,-0.0006,-0.001,-0.0021,-0.0074,-0.0083,-0.003,-0.0126,-0.014,-0.0183,-0.0186,-0.02,-0.0205,-0.031,-0.0309,-0.0309,-0.0259,0,0,0,0,0,0,0.0049,0.0046,0.0047,0.0023,0.0017,0.0001,-0.0007,-0.0012,-0.0023,-0.0024,-0.0082,-0.0093,-0.0126,-0.0174,-0.0188,-0.0193,-0.0209,-0.031,-0.0309,-0.0309,-0.0261,-0.0256,-0.0253,0,0,0,0,0,0.005,0.0054,0.0047,0.0045,0.002,0.0001,-0.0004,-0.0019,-0.0023,-0.0027,-0.006,-0.0091,-0.018,-0.0179,-0.0195,-0.0202,-0.031,-0.031,-0.0309,-0.0262,-0.0257,-0.0253,0,0,0,0,0,0,0.0063,0.0052,0.0044,0.0044,0.0025,-0.0001,-0.0006,-0.0018,-0.0048,-0.005,-0.0097,-0.011,-0.0145,-0.0181,-0.0178,-0.023,-0.0248,-0.025,-0.0207,-0.0203,-0.0199,-0.0195,-0.0213,0,0,0,0,0,0.0067,0.0068,0.005,0.0046,0.0041,0.0016,0.0006,-0.0005,-0.0033,-0.0044,-0.0082,-0.0121,-0.0156,-0.0184,-0.022,-0.0261,-0.0298,-0.0273,-0.0269,-0.0265,-0.0272,-0.0317,-0.0318,-0.0306,-0.0306,-0.0306,0,0,0.007,0.0063,0.0063,0.0048,0.0033,0.0029,0.0011,-0.0002,-0.0007,-0.0057,-0.0078,-0.0113,-0.0162,-0.0194,-0.0214,-0.0226,-0.0287,-0.0264,-0.0261,-0.027,-0.0317,-0.0318,-0.0319,-0.0306,-0.0306,-0.0306,0,0,0.0078,0.0071,0.0077,0.0065,0.0048,0.0035,0.0034,0.0009,-0.0001,-0.0029,-0.0057,-0.0092,-0.0151,-0.0183,-0.0207,-0.021,-0.026,-0.0218,-0.0207,-0.025,-0.0252,-0.0254,-0.0297,-0.0303,-0.0222,-0.0222,-0.0221,0,0.0081,0.0088,0.0073,0.0074,0.0071,0.0043,0.0048,0.0029,-0.0007,-0.0019,-0.0027,-0.0104,-0.0145,-0.0187,-0.0181,-0.0203,-0.0235,-0.022,-0.0246,-0.0248,-0.0251,-0.0295,-0.0303,-0.0219,-0.0219,-0.022,-0.022,0,0.0095,0.0099,0.01,0.0098,0.009,0.0087,0.0068,0.0054,0.0038,0.0015,-0.0024,-0.0077,-0.0123,-0.0138,-0.0165,-0.0202,-0.022,-0.023,-0.0257,-0.0249,-0.0296,-0.0305,-0.0215,-0.0216,-0.0217,-0.0218,0,0,0.0109,0.0113,0.0114,0.0123,0.0106,0.0105,0.0094,0.0078,0.0072,0.0028,0.0011,-0.0049,-0.0081,-0.0111,-0.015,-0.0192,-0.0236,-0.0218,-0.0221,-0.026,-0.0335,-0.0306,-0.0313,-0.025,-0.0251,-0.0252,-0.0358,0,0.0126,0.0147,0.014,0.0157,0.0168,0.0143,0.014,0.0116,0.009,0.0063,0.0001,-0.003,-0.0069,-0.0089,-0.0139,-0.0212,-0.0258,-0.0207,-0.0338,-0.0342,-0.0316,-0.0321,-0.0256,-0.0365,-0.0367,-0.0368,-0.0369,0,0.0146,0.0161,0.0187,0.0199,0.0202,0.0204,0.0197,0.0189,0.0138,0.0117,0.0062,0.0014,-0.0062,-0.0085,-0.0221,-0.0186,-0.0257,-0.0314,-0.032,-0.0319,-0.0329,-0.0376,-0.0386,-0.0385,-0.0383,-0.0382,-0.0381,0,0.0175,0.0194,0.0224,0.0226,0.0231,0.0236,0.0235,0.0202,0.0204,0.0147,0.0137,0.0036,-0.0008,-0.0115,-0.0236,-0.0232,-0.0381,-0.0391,-0.0434,-0.0433,-0.0451,-0.0448,-0.0482,-0.0482,-0.0482,-0.0481,-0.0481,0,0.02,0.0221,0.0242,0.0256,0.0291,0.0276,0.0299,0.0277,0.0251,0.0255,0.0169,0.0143,-0.0016,-0.0118,-0.0232,-0.036,-0.0383,-0.0438,-0.0459,-0.0426,-0.0419,-0.0457,-0.0453,-0.0485,-0.0485,-0.0484,-0.0483,0,0.0221,0.0235,0.0271,0.0294,0.0306,0.0329,0.0351,0.0363,0.0334,0.0333,0.032,0.021,0.0075,-0.0081,-0.0263,-0.0341,-0.0472,-0.0509,-0.0465,-0.0481,-0.05,-0.0492,-0.0577,-0.0576,-0.0576,-0.0576,-0.0576,0,0.0233,0.0257,0.0305,0.0336,0.0349,0.0385,0.0412,0.0404,0.0421,0.0379,0.0381,0.0254,0.0168,-0.0068,-0.0241,-0.0462,-0.0481,-0.0546,-0.0525,-0.0498,-0.0511,-0.0503,-0.0495,-0.0576,-0.0576,-0.0576,-0.0576,0,0.0257,0.0276,0.0308,0.0373,0.0415,0.0466,0.0501,0.052,0.0514,0.0494,0.0439,0.0309,0.0156,-0.0049,-0.0218,-0.0374,-0.0505,-0.0546,-0.0547,-0.0528,-0.0499,-0.0509,-0.0502,-0.0575,-0.0575,-0.0575,-0.0576,0,0.0274,0.0301,0.0348,0.0405,0.0465,0.052,0.0539,0.0559,0.057,0.053,0.0508,0.0336,0.0228,-0.0004,-0.0163,-0.0313,-0.0349,-0.0381,-0.0391,-0.0394,-0.0305,-0.0239,-0.0258,0,0,0,0,0,0.0287,0.0321,0.0376,0.0439,0.0501,0.054,0.0589,0.0602,0.0604,0.0584,0.0551,0.0413,0.0173,0.0054,-0.009,-0.0176,-0.0388,-0.0349,-0.0432,-0.0573,-0.0574,-0.0497,0,0,0,0,0,0,0.0296,0.0346,0.0375,0.0459,0.051,0.0581,0.0617,0.062,0.0609,0.0587,0.0457,0.0398,0.0153,0.0259,-0.0087,-0.0137,-0.0202,-0.0467,-0.0469,-0.0573,-0.0573,-0.0574,-0.0495,0,0,0,0,0]}]]